Time,TemperatureF,DewpointF,PressureIn,WindDirection,WindDirectionDegrees,WindSpeedMPH,WindSpeedGustMPH,Humidity,HourlyPrecipIn,Conditions,Clouds,dailyrainin,SoftwareType,DateUTC
2013-05-01 00:02:00,69.0,14.0,29.65,SW,222,3.0,5.0,12,0.00,,,0.00,,2013-05-01 06:02:00,
2013-05-01 00:11:00,69.0,14.0,29.65,SW,222,3.0,5.0,12,0.00,,,0.00,,2013-05-01 06:11:00,
2013-05-01 00:22:00,70.0,13.0,29.65,WSW,254,7.0,14.0,11,0.00,,,0.00,,2013-05-01 06:22:00,
2013-05-01 00:32:00,70.0,13.0,29.66,West,262,9.0,12.0,11,0.00,,,0.00,,2013-05-01 06:32:00,
2013-05-01 00:42:00,70.0,13.0,29.66,West,262,9.0,12.0,11,0.00,,,0.00,,2013-05-01 06:42:00,
2013-05-01 00:52:00,70.0,13.0,29.66,West,273,8.0,15.0,11,0.00,,,0.00,,2013-05-01 06:52:00,
2013-05-01 01:01:00,70.0,15.0,29.67,West,272,7.0,15.0,12,0.00,,,0.00,,2013-05-01 07:01:00,
2013-05-01 01:11:00,70.0,15.0,29.67,West,272,7.0,15.0,12,0.00,,,0.00,,2013-05-01 07:11:00,
2013-05-01 01:21:00,70.0,15.0,29.68,West,270,6.0,12.0,12,0.00,,,0.00,,2013-05-01 07:21:00,
2013-05-01 01:32:00,69.0,14.0,29.68,WSW,239,9.0,16.0,12,0.00,,,0.00,,2013-05-01 07:32:00,
2013-05-01 01:41:00,69.0,14.0,29.68,WSW,239,9.0,16.0,12,0.00,,,0.00,,2013-05-01 07:41:00,
2013-05-01 01:52:00,69.0,14.0,29.68,West,259,5.0,13.0,12,0.00,,,0.00,,2013-05-01 07:52:00,
2013-05-01 02:01:00,69.0,14.0,29.68,WSW,251,3.0,10.0,12,0.00,,,0.00,,2013-05-01 08:01:00,
2013-05-01 02:11:00,69.0,14.0,29.68,WSW,251,3.0,10.0,12,0.00,,,0.00,,2013-05-01 08:11:00,
2013-05-01 02:21:00,67.0,15.0,29.68,SE,144,1.0,3.0,13,0.00,,,0.00,,2013-05-01 08:21:00,
2013-05-01 02:31:00,65.0,13.0,29.69,ESE,107,2.0,3.0,13,0.00,,,0.00,,2013-05-01 08:31:00,
2013-05-01 02:42:00,65.0,13.0,29.69,ESE,107,2.0,3.0,13,0.00,,,0.00,,2013-05-01 08:42:00,
2013-05-01 02:53:00,64.0,15.0,29.70,ESE,112,2.0,7.0,15,0.00,,,0.00,,2013-05-01 08:53:00,
2013-05-01 03:01:00,64.0,15.0,29.70,East,84,1.0,7.0,15,0.00,,,0.00,,2013-05-01 09:01:00,
2013-05-01 03:11:00,64.0,15.0,29.70,East,84,1.0,7.0,15,0.00,,,0.00,,2013-05-01 09:11:00,
2013-05-01 03:21:00,63.0,16.0,29.70,ESE,121,4.0,6.0,16,0.00,,,0.00,,2013-05-01 09:21:00,
2013-05-01 03:33:00,62.0,15.0,29.71,ESE,111,4.0,5.0,16,0.00,,,0.00,,2013-05-01 09:33:00,
2013-05-01 03:42:00,62.0,15.0,29.71,ESE,111,4.0,5.0,16,0.00,,,0.00,,2013-05-01 09:42:00,
2013-05-01 03:53:00,62.0,15.0,29.71,ESE,113,2.0,3.0,16,0.00,,,0.00,,2013-05-01 09:53:00,
2013-05-01 04:02:00,61.0,14.0,29.71,ESE,119,2.0,4.0,16,0.00,,,0.00,,2013-05-01 10:02:00,
2013-05-01 04:12:00,61.0,14.0,29.71,ESE,119,2.0,4.0,16,0.00,,,0.00,,2013-05-01 10:12:00,
2013-05-01 04:22:00,60.0,15.0,29.71,ESE,111,3.0,4.0,17,0.00,,,0.00,,2013-05-01 10:22:00,
2013-05-01 04:33:00,60.0,15.0,29.72,SE,124,2.0,2.0,17,0.00,,,0.00,,2013-05-01 10:33:00,
2013-05-01 04:42:00,60.0,15.0,29.72,SE,124,2.0,2.0,17,0.00,,,0.00,,2013-05-01 10:42:00,
2013-05-01 04:53:00,59.0,14.0,29.72,SE,125,2.0,2.0,17,0.00,,,0.00,,2013-05-01 10:53:00,
2013-05-01 05:02:00,58.0,13.0,29.72,SE,140,2.0,3.0,17,0.00,,,0.00,,2013-05-01 11:02:00,
2013-05-01 05:11:00,58.0,13.0,29.72,SE,140,2.0,3.0,17,0.00,,,0.00,,2013-05-01 11:11:00,
2013-05-01 05:22:00,58.0,13.0,29.73,SSE,155,2.0,4.0,17,0.00,,,0.00,,2013-05-01 11:22:00,
2013-05-01 05:32:00,58.0,13.0,29.73,South,175,2.0,4.0,17,0.00,,,0.00,,2013-05-01 11:32:00,
2013-05-01 05:42:00,58.0,13.0,29.73,South,175,2.0,4.0,17,0.00,,,0.00,,2013-05-01 11:42:00,
2013-05-01 05:52:00,58.0,15.0,29.73,South,175,2.0,3.0,18,0.00,,,0.00,,2013-05-01 11:52:00,
2013-05-01 06:01:00,58.0,13.0,29.74,SSE,155,2.0,3.0,17,0.00,,,0.00,,2013-05-01 12:01:00,
2013-05-01 06:11:00,58.0,13.0,29.75,SE,130,2.0,2.0,17,0.00,,,0.00,,2013-05-01 12:11:00,
2013-05-01 06:21:00,58.0,13.0,29.75,SE,130,2.0,2.0,17,0.00,,,0.00,,2013-05-01 12:21:00,
2013-05-01 06:31:00,58.0,15.0,29.75,SE,128,2.0,3.0,18,0.00,,,0.00,,2013-05-01 12:31:00,
2013-05-01 06:41:00,58.0,15.0,29.75,SE,128,2.0,3.0,18,0.00,,,0.00,,2013-05-01 12:41:00,
2013-05-01 06:52:00,57.0,14.0,29.76,ESE,117,2.0,4.0,18,0.00,,,0.00,,2013-05-01 12:52:00,
2013-05-01 07:01:00,57.0,14.0,29.76,SE,138,2.0,3.0,18,0.00,,,0.00,,2013-05-01 13:01:00,
2013-05-01 07:11:00,57.0,14.0,29.76,SE,138,2.0,3.0,18,0.00,,,0.00,,2013-05-01 13:11:00,
2013-05-01 07:21:00,57.0,15.0,29.76,ESE,114,3.0,6.0,19,0.00,,,0.00,,2013-05-01 13:21:00,
2013-05-01 07:31:00,58.0,16.0,29.77,ESE,119,3.0,4.0,19,0.00,,,0.00,,2013-05-01 13:31:00,
2013-05-01 07:42:00,58.0,16.0,29.77,ESE,119,3.0,4.0,19,0.00,,,0.00,,2013-05-01 13:42:00,
2013-05-01 07:52:00,57.0,16.0,29.78,ESE,109,2.0,3.0,20,0.00,,,0.00,,2013-05-01 13:52:00,
2013-05-01 08:02:00,57.0,16.0,29.78,ESE,117,2.0,4.0,20,0.00,,,0.00,,2013-05-01 14:02:00,
2013-05-01 08:11:00,57.0,16.0,29.78,ESE,117,2.0,4.0,20,0.00,,,0.00,,2013-05-01 14:11:00,
2013-05-01 08:21:00,58.0,17.0,29.79,ESE,110,2.0,3.0,20,0.00,,,0.00,,2013-05-01 14:21:00,
2013-05-01 08:32:00,60.0,20.0,29.79,SSE,148,2.0,4.0,21,0.00,,,0.00,,2013-05-01 14:32:00,
2013-05-01 08:42:00,60.0,20.0,29.79,SSE,148,2.0,4.0,21,0.00,,,0.00,,2013-05-01 14:42:00,
2013-05-01 08:52:00,62.0,19.0,29.79,SE,145,3.0,5.0,19,0.00,,,0.00,,2013-05-01 14:52:00,
2013-05-01 09:01:00,64.0,18.0,29.79,SE,143,4.0,7.0,17,0.00,,,0.00,,2013-05-01 15:01:00,
2013-05-01 09:11:00,64.0,18.0,29.79,SE,143,4.0,7.0,17,0.00,,,0.00,,2013-05-01 15:11:00,
2013-05-01 09:21:00,66.0,19.0,29.79,SSE,164,1.0,5.0,16,0.00,,,0.00,,2013-05-01 15:21:00,
2013-05-01 09:33:00,67.0,19.0,29.79,SW,228,2.0,5.0,16,0.00,,,0.00,,2013-05-01 15:33:00,
2013-05-01 09:43:00,67.0,19.0,29.79,SW,228,2.0,5.0,16,0.00,,,0.00,,2013-05-01 15:43:00,
2013-05-01 09:53:00,69.0,16.0,29.79,NW,317,1.0,5.0,13,0.00,,,0.00,,2013-05-01 15:53:00,
2013-05-01 10:03:00,70.0,17.0,29.80,SSW,209,2.0,4.0,13,0.00,,,0.00,,2013-05-01 16:03:00,
2013-05-01 10:12:00,70.0,17.0,29.80,SSW,209,2.0,4.0,13,0.00,,,0.00,,2013-05-01 16:12:00,
2013-05-01 10:22:00,71.0,18.0,29.79,SSE,148,2.0,4.0,13,0.00,,,0.00,,2013-05-01 16:22:00,
2013-05-01 10:31:00,74.0,20.0,29.79,SSE,166,2.0,5.0,13,0.00,,,0.00,,2013-05-01 16:31:00,
2013-05-01 10:42:00,74.0,20.0,29.79,SSE,166,2.0,5.0,13,0.00,,,0.00,,2013-05-01 16:42:00,
2013-05-01 10:53:00,74.0,16.0,29.80,WSW,254,2.0,6.0,11,0.00,,,0.00,,2013-05-01 16:53:00,
2013-05-01 11:02:00,76.0,18.0,29.79,WSW,241,3.0,7.0,11,0.00,,,0.00,,2013-05-01 17:02:00,
2013-05-01 11:12:00,76.0,18.0,29.79,WSW,241,3.0,7.0,11,0.00,,,0.00,,2013-05-01 17:12:00,
2013-05-01 11:21:00,75.0,15.0,29.79,NW,321,2.0,7.0,10,0.00,,,0.00,,2013-05-01 17:21:00,
2013-05-01 11:31:00,76.0,16.0,29.79,WSW,249,3.0,8.0,10,0.00,,,0.00,,2013-05-01 17:31:00,
2013-05-01 11:42:00,77.0,16.0,29.79,SE,135,2.0,5.0,10,0.00,,,0.00,,2013-05-01 17:42:00,
2013-05-01 11:52:00,77.0,16.0,29.79,SE,135,2.0,5.0,10,0.00,,,0.00,,2013-05-01 17:52:00,
2013-05-01 12:01:00,79.0,13.0,29.78,West,274,3.0,9.0,8,0.00,,,0.00,,2013-05-01 18:01:00,
2013-05-01 12:11:00,79.0,13.0,29.78,West,274,3.0,9.0,8,0.00,,,0.00,,2013-05-01 18:11:00,
2013-05-01 12:22:00,81.0,14.0,29.78,WSW,245,4.0,13.0,8,0.00,,,0.00,,2013-05-01 18:22:00,
2013-05-01 12:32:00,83.0,13.0,29.77,WSW,246,5.0,8.0,7,0.00,,,0.00,,2013-05-01 18:32:00,
2013-05-01 12:41:00,83.0,13.0,29.77,WSW,246,5.0,8.0,7,0.00,,,0.00,,2013-05-01 18:41:00,
2013-05-01 12:52:00,83.0,13.0,29.77,WSW,255,8.0,9.0,7,0.00,,,0.00,,2013-05-01 18:52:00,
2013-05-01 13:02:00,84.0,13.0,29.77,West,281,5.0,15.0,7,0.00,,,0.00,,2013-05-01 19:02:00,
2013-05-01 13:11:00,84.0,13.0,29.77,West,281,5.0,15.0,7,0.00,,,0.00,,2013-05-01 19:11:00,
2013-05-01 13:22:00,84.0,13.0,29.76,WSW,242,3.0,7.0,7,0.00,,,0.00,,2013-05-01 19:22:00,
2013-05-01 13:32:00,85.0,14.0,29.76,WSW,254,11.0,15.0,7,0.00,,,0.00,,2013-05-01 19:32:00,
2013-05-01 13:42:00,85.0,14.0,29.76,WSW,254,11.0,15.0,7,0.00,,,0.00,,2013-05-01 19:42:00,
2013-05-01 13:52:00,86.0,15.0,29.76,SW,222,6.0,9.0,7,0.00,,,0.00,,2013-05-01 19:52:00,
2013-05-01 14:01:00,86.0,15.0,29.76,West,280,6.0,10.0,7,0.00,,,0.00,,2013-05-01 20:01:00,
2013-05-01 14:11:00,86.0,15.0,29.76,West,280,6.0,10.0,7,0.00,,,0.00,,2013-05-01 20:11:00,
2013-05-01 14:21:00,87.0,16.0,29.75,SSW,210,10.0,15.0,7,0.00,,,0.00,,2013-05-01 20:21:00,
2013-05-01 14:32:00,87.0,12.0,29.76,SW,234,5.0,14.0,6,0.00,,,0.00,,2013-05-01 20:32:00,
2013-05-01 14:42:00,87.0,12.0,29.76,SW,234,5.0,14.0,6,0.00,,,0.00,,2013-05-01 20:42:00,
2013-05-01 14:52:00,86.0,11.0,29.76,SW,236,7.0,16.0,6,0.00,,,0.00,,2013-05-01 20:52:00,
2013-05-01 15:01:00,87.0,12.0,29.75,West,259,6.0,14.0,6,0.00,,,0.00,,2013-05-01 21:01:00,
2013-05-01 15:11:00,87.0,12.0,29.75,West,259,6.0,14.0,6,0.00,,,0.00,,2013-05-01 21:11:00,
2013-05-01 15:22:00,88.0,13.0,29.75,West,261,7.0,16.0,6,0.00,,,0.00,,2013-05-01 21:22:00,
2013-05-01 15:32:00,88.0,13.0,29.74,WSW,257,9.0,15.0,6,0.00,,,0.00,,2013-05-01 21:32:00,
2013-05-01 15:43:00,87.0,12.0,29.74,West,279,8.0,15.0,6,0.00,,,0.00,,2013-05-01 21:43:00,
2013-05-01 15:53:00,87.0,12.0,29.74,West,279,8.0,15.0,6,0.00,,,0.00,,2013-05-01 21:53:00,
2013-05-01 16:03:00,87.0,12.0,29.73,WSW,244,9.0,17.0,6,0.00,,,0.00,,2013-05-01 22:03:00,
2013-05-01 16:12:00,87.0,12.0,29.73,WSW,244,9.0,17.0,6,0.00,,,0.00,,2013-05-01 22:12:00,
2013-05-01 16:23:00,87.0,12.0,29.73,WSW,255,12.0,15.0,6,0.00,,,0.00,,2013-05-01 22:23:00,
2013-05-01 16:33:00,87.0,12.0,29.73,WSW,237,5.0,10.0,6,0.00,,,0.00,,2013-05-01 22:33:00,
2013-05-01 16:42:00,87.0,12.0,29.73,WSW,237,5.0,10.0,6,0.00,,,0.00,,2013-05-01 22:42:00,
2013-05-01 16:53:00,86.0,11.0,29.72,WSW,242,11.0,15.0,6,0.00,,,0.00,,2013-05-01 22:53:00,
2013-05-01 17:02:00,86.0,11.0,29.72,WSW,242,9.0,15.0,6,0.00,,,0.00,,2013-05-01 23:02:00,
2013-05-01 17:12:00,86.0,11.0,29.72,WSW,242,9.0,15.0,6,0.00,,,0.00,,2013-05-01 23:12:00,
2013-05-01 17:21:00,87.0,8.0,29.72,WSW,238,8.0,15.0,5,0.00,,,0.00,,2013-05-01 23:21:00,
2013-05-01 17:32:00,86.0,7.0,29.73,SW,220,9.0,14.0,5,0.00,,,0.00,,2013-05-01 23:32:00,
2013-05-01 17:42:00,86.0,7.0,29.73,SW,220,9.0,14.0,5,0.00,,,0.00,,2013-05-01 23:42:00,
2013-05-01 17:52:00,86.0,11.0,29.72,West,260,7.0,16.0,6,0.00,,,0.00,,2013-05-01 23:52:00,
2013-05-01 18:01:00,85.0,11.0,29.72,SW,229,5.0,13.0,6,0.00,,,0.00,,2013-05-02 00:01:00,
2013-05-01 18:11:00,85.0,11.0,29.72,SW,229,5.0,13.0,6,0.00,,,0.00,,2013-05-02 00:11:00,
2013-05-01 18:21:00,85.0,11.0,29.73,WSW,240,6.0,14.0,6,0.00,,,0.00,,2013-05-02 00:21:00,
2013-05-01 18:32:00,87.0,12.0,29.73,West,263,10.0,15.0,6,0.00,,,0.00,,2013-05-02 00:32:00,
2013-05-01 18:41:00,87.0,12.0,29.73,West,263,10.0,15.0,6,0.00,,,0.00,,2013-05-02 00:41:00,
2013-05-01 18:52:00,88.0,13.0,29.73,West,270,8.0,16.0,6,0.00,,,0.00,,2013-05-02 00:52:00,
2013-05-01 19:01:00,86.0,11.0,29.74,WSW,243,9.0,16.0,6,0.00,,,0.00,,2013-05-02 01:01:00,
2013-05-01 19:11:00,86.0,11.0,29.74,WSW,243,9.0,16.0,6,0.00,,,0.00,,2013-05-02 01:11:00,
2013-05-01 19:21:00,84.0,13.0,29.74,WSW,256,9.0,15.0,7,0.00,,,0.00,,2013-05-02 01:21:00,
2013-05-01 19:32:00,80.0,23.0,29.75,WNW,294,6.0,10.0,12,0.00,,,0.00,,2013-05-02 01:32:00,
2013-05-01 19:42:00,80.0,23.0,29.75,WNW,294,6.0,10.0,12,0.00,,,0.00,,2013-05-02 01:42:00,
2013-05-01 19:52:00,78.0,23.0,29.75,NW,314,5.0,9.0,13,0.00,,,0.00,,2013-05-02 01:52:00,
2013-05-01 20:01:00,77.0,24.0,29.76,NW,310,7.0,13.0,14,0.00,,,0.00,,2013-05-02 02:01:00,
2013-05-01 20:11:00,77.0,24.0,29.76,NW,310,7.0,13.0,14,0.00,,,0.00,,2013-05-02 02:11:00,
2013-05-01 20:21:00,76.0,20.0,29.78,North,350,10.0,14.0,12,0.00,,,0.00,,2013-05-02 02:21:00,
2013-05-01 20:32:00,72.0,12.0,29.80,NNW,329,8.0,15.0,10,0.00,,,0.00,,2013-05-02 02:32:00,
2013-05-01 20:42:00,72.0,12.0,29.80,NNW,329,8.0,15.0,10,0.00,,,0.00,,2013-05-02 02:42:00,
2013-05-01 20:51:00,72.0,12.0,29.80,NNW,329,8.0,15.0,10,0.00,,,0.00,,2013-05-02 02:51:00,
2013-05-01 21:01:00,70.0,9.0,29.85,NNW,348,6.0,10.0,9,0.00,,,0.00,,2013-05-02 03:01:00,
2013-05-01 21:11:00,70.0,9.0,29.85,NNW,348,6.0,10.0,9,0.00,,,0.00,,2013-05-02 03:11:00,
2013-05-01 21:22:00,69.0,5.0,29.89,NNW,347,3.0,7.0,8,0.00,,,0.00,,2013-05-02 03:22:00,
2013-05-01 21:32:00,67.0,1.0,29.90,WNW,289,8.0,10.0,7,0.00,,,0.00,,2013-05-02 03:32:00,
2013-05-01 21:42:00,67.0,1.0,29.90,WNW,289,8.0,10.0,7,0.00,,,0.00,,2013-05-02 03:42:00,
2013-05-01 21:53:00,66.0,0.0,29.90,NNW,330,7.0,12.0,7,0.00,,,0.00,,2013-05-02 03:53:00,
2013-05-01 22:03:00,65.0,-1.0,29.91,NW,308,8.0,12.0,7,0.00,,,0.00,,2013-05-02 04:03:00,
2013-05-01 22:12:00,65.0,-1.0,29.91,NW,308,8.0,12.0,7,0.00,,,0.00,,2013-05-02 04:12:00,
2013-05-01 22:23:00,64.0,-1.0,29.91,NW,314,7.0,9.0,7,0.00,,,0.00,,2013-05-02 04:23:00,
2013-05-01 22:33:00,64.0,-1.0,29.92,WNW,289,5.0,9.0,7,0.00,,,0.00,,2013-05-02 04:33:00,
2013-05-01 22:42:00,64.0,-1.0,29.92,WNW,289,5.0,9.0,7,0.00,,,0.00,,2013-05-02 04:42:00,
2013-05-01 22:52:00,63.0,-2.0,29.92,West,260,3.0,8.0,7,0.00,,,0.00,,2013-05-02 04:52:00,
2013-05-01 23:02:00,61.0,18.0,29.95,SSE,150,4.0,7.0,19,0.00,,,0.00,,2013-05-02 05:02:00,
2013-05-01 23:12:00,61.0,18.0,29.95,SSE,150,4.0,7.0,19,0.00,,,0.00,,2013-05-02 05:12:00,
2013-05-01 23:22:00,60.0,20.0,29.96,SE,143,2.0,6.0,21,0.00,,,0.00,,2013-05-02 05:22:00,
2013-05-01 23:32:00,58.0,21.0,29.96,SE,141,3.0,5.0,24,0.00,,,0.00,,2013-05-02 05:32:00,
2013-05-01 23:42:00,58.0,21.0,29.96,SE,141,3.0,5.0,24,0.00,,,0.00,,2013-05-02 05:42:00,
2013-05-01 23:52:00,56.0,24.0,29.96,SE,124,7.0,10.0,29,0.00,,,0.00,,2013-05-02 05:52:00,